Theta_e
298 299 301 303 306 309 307 309 308 328 334 336 335 336 337 337 339 340 336 332 329 326 323 319 315 315 312 309 306 299 296 294
297 297 298 300 303 309 312 314 315 318 333 333 332 334 336 337 340 337 334 330 325 323 321 316 315 312 307 303 297 294 294 294
295 296 299 300 302 307 312 313 317 319 328 331 332 334 335 336 336 335 331 327 324 321 317 313 311 308 303 298 294 291 291 292
295 298 300 301 303 305 310 313 317 320 323 329 330 332 333 332 330 326 324 322 319 316 313 310 308 304 300 299 293 289 290 289
293 297 298 300 303 309 310 313 319 320 322 328 330 332 330 328 323 319 316 315 314 311 309 306 302 299 298 296 294 287 287 287
294 297 296 299 303 306 315 318 320 322 324 328 330 328 322 317 315 314 312 310 306 304 302 300 299 297 294 292 292 287 286 286
295 296 299 302 305 312 316 318 317 323 326 327 326 321 315 313 311 310 309 305 302 300 299 297 294 291 292 292 289 287 286 285
296 298 302 309 312 316 315 312 310 315 321 321 316 312 311 308 307 306 306 303 300 298 294 293 293 288 292 292 289 288 286 285
298 301 307 308 312 314 308 309 307 308 312 313 312 311 309 307 304 304 302 299 296 293 289 289 288 289 290 292 291 288 287 286
306 305 305 307 312 308 306 304 306 307 304 303 302 303 303 302 301 300 299 295 293 291 289 290 290 290 292 292 291 290 291 287
304 304 303 307 309 307 303 304 304 303 302 301 300 300 300 300 298 297 295 294 292 291 291 290 290 291 290 292 291 292 292 288
303 302 301 302 304 306 304 302 302 300 299 298 298 297 297 297 297 297 295 293 292 292 291 289 288 288 288 288 291 293 294 291
300 299 297 298 300 301 302 302 300 297 297 296 295 295 294 293 294 294 293 293 294 291 291 289 288 288 286 289 289 287 287 288
297 297 296 297 297 297 298 299 298 295 293 293 292 291 292 291 290 288 290 290 290 290 290 290 288 289 290 290 290 289 289 289
295 295 295 295 295 294 296 297 296 294 292 293 292 292 291 290 289 287 286 288 290 289 289 290 290 290 290 289 289 288 288 287
296 295 294 294 293 292 294 294 294 293 292 292 292 291 290 289 289 288 288 287 286 286 289 290 290 289 289 289 288 288 284 284
295 295 294 294 293 293 295 294 292 291 290 290 290 290 289 289 288 287 287 286 285 285 287 289 289 289 288 288 288 284 283 281
292 291 293 293 293 293 294 293 291 290 289 289 289 288 288 288 288 287 286 286 286 287 286 285 286 286 284 283 283 283 282 280
295 294 295 294 293 295 296 295 292 290 289 288 288 288 287 287 287 287 287 287 287 286 284 284 284 284 283 283 282 282 281 280
296 295 296 296 296 296 296 296 293 290 288 288 288 288 288 288 287 288 287 287 286 285 284 284 284 284 283 282 282 282 281 281
Wind_Speed
9 11 11 13 13 12 11 12 8 12 14 16 15 17 17 17 17 17 18 17 17 16 18 18 17 17 17 15 12 13 10 9
14 13 14 14 14 14 12 13 8 8 11 13 16 17 18 17 16 18 19 19 20 17 14 21 18 17 17 16 16 12 11 9
16 16 15 14 15 14 12 12 10 9 8 10 14 16 15 16 16 16 16 20 19 20 16 21 19 17 13 16 15 14 12 10
19 18 15 15 15 14 14 13 13 9 10 12 13 14 15 18 17 16 18 16 18 20 20 20 19 12 25 23 18 13 11 10
21 20 16 15 16 15 17 17 14 12 14 11 14 15 19 18 20 20 23 22 16 21 17 18 19 20 23 23 20 10 10 9
19 14 15 17 16 18 18 13 15 18 16 14 16 21 23 21 25 23 22 21 22 17 19 18 17 15 25 23 20 12 11 10
16 14 17 19 19 15 20 8 5 10 18 20 22 25 26 24 25 24 23 22 20 20 17 17 19 14 25 21 17 13 12 10
16 16 16 14 17 15 9 14 15 15 19 23 24 27 26 25 26 24 21 25 23 16 17 16 19 16 19 16 14 11 11 8
15 14 9 10 13 9 21 21 20 17 19 24 23 21 20 24 24 21 23 25 24 17 20 15 15 14 12 13 12 9 8 8
6 4 7 9 8 16 19 22 19 21 23 26 25 20 16 18 23 22 22 28 22 19 19 15 10 9 13 13 13 8 8 9
6 5 8 10 10 16 21 19 21 25 23 23 25 25 22 20 22 19 17 20 18 16 15 13 10 6 8 14 10 12 12 10
7 11 12 14 16 12 19 18 23 25 26 21 21 24 22 19 15 13 14 16 16 14 14 12 10 9 6 5 7 10 16 12
10 12 16 17 17 17 16 17 22 24 23 19 21 18 19 17 13 10 13 13 12 15 12 12 13 10 6 9 9 8 7 10
12 14 19 18 21 21 18 17 19 24 20 15 15 15 15 15 16 16 25 25 24 20 17 12 6 12 14 16 15 15 13 12
15 16 18 19 21 21 17 15 16 21 20 16 15 17 15 16 15 15 16 18 25 20 18 16 15 16 19 19 18 18 13 11
15 17 19 19 21 21 17 16 16 20 18 21 14 14 14 15 15 14 13 15 14 10 12 16 18 19 19 17 18 10 8 11
16 18 18 19 20 19 17 18 17 14 15 14 15 15 14 16 14 14 13 12 12 11 11 13 15 18 19 19 14 9 9 8
15 15 16 19 20 18 18 18 16 13 15 24 18 14 14 14 13 13 12 10 11 11 10 7 6 8 9 8 7 8 9 7
14 14 15 17 19 18 18 14 10 11 12 13 18 13 12 12 12 11 10 10 11 10 6 6 10 10 8 8 6 6 6 5
14 16 16 15 16 16 15 13 12 11 11 12 11 12 12 12 11 9 9 10 10 10 8 9 13 8 8 7 5 6 4 4
Wind_Direction
300 300 306 297 300 290 281 279 264 230 201 186 184 181 179 174 169 157 151 148 141 144 143 132 125 123 116 111 117 101 106 103
303 301 296 289 290 281 279 281 260 255 198 190 175 186 185 167 161 155 153 144 137 141 141 121 120 118 111 114 103 108 97 95
292 293 288 275 280 280 285 274 265 233 226 178 178 178 171 152 156 153 143 142 137 131 128 115 116 116 118 117 112 109 109 106
282 277 280 284 278 276 276 269 261 229 203 185 174 163 148 138 139 125 125 120 125 126 122 119 120 114 114 119 114 115 116 112
275 271 280 285 281 281 279 268 254 231 204 193 160 148 127 135 124 120 118 106 108 106 100 109 106 110 115 105 107 108 112 107
271 279 294 285 282 280 262 243 249 216 195 165 138 126 119 132 122 124 116 116 108 96 102 103 111 108 107 105 110 109 99 95
282 290 284 285 277 266 273 244 149 144 157 135 131 131 127 129 124 124 120 110 96 103 108 115 107 114 111 115 115 110 102 98
281 283 279 274 275 275 107 91 81 93 111 119 121 122 132 129 123 124 122 106 110 105 109 99 122 121 114 119 118 113 114 100
275 273 277 288 286 105 92 95 84 86 103 107 105 113 119 121 115 117 109 117 104 112 107 113 116 117 115 112 105 112 114 114
349 3 324 306 87 97 92 88 94 94 89 93 95 100 102 104 101 102 122 105 114 119 115 109 100 108 109 93 88 97 111 106
10 42 28 35 59 94 94 95 96 95 90 96 99 101 95 99 102 105 106 115 118 115 114 115 114 100 92 94 109 102 105 106
29 56 55 61 58 65 88 91 91 87 88 91 93 92 96 95 97 115 119 113 113 116 118 117 117 113 105 99 109 108 102 98
42 63 59 62 72 70 74 88 93 91 91 92 91 93 95 92 85 91 105 83 105 124 123 125 129 131 142 135 132 126 117 109
49 61 66 62 67 64 66 82 96 97 90 91 98 99 100 104 98 83 62 83 81 83 90 107 89 103 126 117 110 98 103 108
46 61 62 68 68 62 59 67 86 95 100 105 108 108 105 106 104 106 105 75 78 82 91 99 109 127 108 103 101 82 83 103
56 60 66 66 67 63 61 74 82 91 101 100 100 101 103 102 102 109 111 112 110 97 66 105 108 108 109 102 90 97 80 61
67 70 74 78 77 74 69 76 78 84 93 94 97 97 98 101 102 103 103 104 106 110 108 89 89 91 89 81 87 89 95 84
73 71 78 82 81 80 75 69 68 70 76 86 90 97 102 102 105 108 110 107 106 108 108 117 114 93 86 82 76 90 81 76
76 82 87 85 85 84 77 84 95 86 84 82 91 95 99 104 106 102 104 106 108 112 110 100 102 104 103 97 87 90 108 103
81 80 76 81 89 83 76 73 85 87 87 92 96 99 102 98 99 100 104 107 105 99 96 92 88 88 99 106 99 89 106 122